Location: Ab? ar R?sh Ba?r?
(24.1861°N, 32.8847°E)
Time: 10:05:45
(UTC+00:00)

Centaur D-1A AC-32 - Pass Details

Date: 24 October 2021
Orbit: 618 x 36395 km, 25.7° (Epoch: 03 December)

Event Time Altitude Azimuth Distance (km) Brightness Sun altitude
Rises 15:06:08 0° 244° (WSW) 16,053 11.4 1.0°
Reaches altitude 10° 15:27:42 10° 243° (WSW) 9,255 9.6 -3.8°
Maximum altitude 15:47:26 58° 169° (SSE) 1,516 4.0 -8.2°
Enters shadow 15:51:49 11° 89° (E) 2,279 4.3 -9.2°
